Brookings, SD

8:45 PM CDT on October 13, 2019 (GMT -0500)
Brookings Municipal

Weather History for KBKX - August, 2019

Change the Weather History Date:

Thursday, August 22, 2019

  Actual Average Record
Temperature  
Mean Temperature 64 °F -  
Max Temperature 75 °F 77 °F 89 °F (2012)
Min Temperature 54 °F 56 °F 50 °F (2003)
Degree Days  
Heating Degree Days 2    
Growing Degree Days 14 (Base 50)    
Moisture  
Dew Point 55 °F    
Average Humidity 74    
Maximum Humidity 100    
Minimum Humidity 55    
Precipitation  
Precipitation 0.00 in - - ()
Sea Level Pressure  
Sea Level Pressure 30.11 in    
Wind  
Wind Speed 5 mph (ESE)    
Max Wind Speed 14 mph    
Max Gust Speed 16 mph    
Visibility 10 miles    
Events      
Averages and records for this station are not official NWS values.
T = Trace of Precipitation, MM = Missing Value Source: NWS Daily Summary

Daily Weather History Graph

Daily Weather History Graph

Search for Another Location

Airport or City:

Astronomy

Aug. 22, 2019 Rise Set
Actual Time 6:38 AM CDT 8:21 PM CDT
Civil Twilight 6:07 AM CDT 8:51 PM CDT
Nautical Twilight 5:30 AM CDT 9:29 PM CDT
Astronomical Twilight 4:49 AM CDT 10:09 PM CDT
Moon 11:56 PM CDT (8/22) 1:29 PM CDT (8/22)
Length of Visible Light 14h 44m
Length of Day
13h 42m
Waning Gibbous, 59% of the Moon is Illuminated
Aug 22
Waning Gibbous
Aug 23
Last Quarter
Aug 30
New
Sep 5
First Quarter
Sep 13
Full

Hourly Weather History & Observations

Time (CDT) Temp. Dew Point Humidity Pressure Visibility Wind Dir Wind Speed Gust Speed Precip Events Conditions
12:56 AM 61.0 °F 55.0 °F 81% 30.12 in 10.0 mi ESE 3.5 mph - N/A   Clear
1:56 AM 55.9 °F 55.9 °F 100% 30.11 in 10.0 mi Calm Calm - N/A   Clear
2:56 AM 55.9 °F 55.0 °F 97% 30.12 in 10.0 mi Calm Calm - N/A   Clear
3:56 AM 55.0 °F 54.0 °F 96% 30.11 in 10.0 mi Calm Calm - N/A   Clear
4:56 AM 54.0 °F 53.1 °F 97% 30.11 in 10.0 mi Calm Calm - N/A   Clear
5:56 AM 55.0 °F 52.0 °F 89% - 10.0 mi East 3.5 mph - N/A   Clear
6:56 AM 54.0 °F 52.0 °F 93% 30.12 in 10.0 mi Calm Calm - N/A   Clear
7:56 AM 59.0 °F 54.0 °F 83% 30.12 in 8.0 mi East 4.6 mph - N/A   Clear
8:56 AM 63.0 °F 54.0 °F 72% 30.12 in 10.0 mi SE 8.1 mph - N/A   Clear
9:56 AM 66.0 °F 55.0 °F 68% 30.13 in 10.0 mi SE 9.2 mph - N/A   Clear
10:56 AM 69.1 °F 55.0 °F 61% 30.13 in 10.0 mi ESE 11.5 mph - N/A   Clear
11:56 AM 71.1 °F 57.0 °F 61% 30.13 in 10.0 mi SSE 11.5 mph - N/A   Clear
12:56 PM 72.0 °F 59.0 °F 64% 30.12 in 10.0 mi SSE 10.4 mph - N/A   Mostly Cloudy
1:56 PM 71.1 °F 57.9 °F 63% 30.11 in 10.0 mi SE 8.1 mph - N/A   Mostly Cloudy
2:56 PM 73.0 °F 57.9 °F 59% 30.09 in 10.0 mi East 6.9 mph - N/A   Partly Cloudy
3:56 PM 73.0 °F 57.9 °F 59% 30.08 in 10.0 mi Variable 5.8 mph - 0.00 in   Clear
4:56 PM 73.9 °F 57.0 °F 55% 30.08 in 10.0 mi ESE 12.7 mph - N/A   Clear
5:56 PM 73.9 °F 57.0 °F 55% 30.06 in 10.0 mi SE 11.5 mph 16.1 mph N/A   Partly Cloudy
6:56 PM 72.0 °F 55.9 °F 57% 30.07 in 10.0 mi ESE 11.5 mph - N/A   Clear
7:56 PM 69.1 °F 57.0 °F 65% 30.09 in 10.0 mi East 11.5 mph - N/A   Clear
8:56 PM 66.0 °F 55.9 °F 70% 30.10 in 10.0 mi ESE 10.4 mph - N/A   Clear
9:56 PM 64.0 °F 55.0 °F 73% 30.12 in 10.0 mi ESE 13.8 mph - N/A   Clear
10:56 PM 62.1 °F 55.0 °F 78% 30.13 in 10.0 mi ESE 11.5 mph - N/A   Clear
11:56 PM 61.0 °F 54.0 °F 78% 30.14 in 10.0 mi ESE 12.7 mph - N/A   Clear